Alliance, NE

11:23 PM MDT on June 27, 2017 (GMT -0600)
Alliance Municipal

Weather History for KAIA - June, 2013

Change the Weather History Date:

Saturday, June 8, 2013

  Actual Average Record
Temperature  
Mean Temperature 61 °F 62 °F  
Max Temperature 76 °F 77 °F 98 °F (2000)
Min Temperature 46 °F 48 °F 30 °F (2007)
Degree Days  
Heating Degree Days 4 4  
Month to date heating degree days 56 42  
Since 1 June heating degree days 56 42  
Since 1 July heating degree days 7184 7257  
Cooling Degree Days 0 2  
Month to date cooling degree days 3 12  
Year to date cooling degree days 25 22  
Since 1 June cooling degree days 3 12  
Growing Degree Days 10 (Base 50)    
Moisture  
Dew Point 49 °F    
Average Humidity 60    
Maximum Humidity 93    
Minimum Humidity 27    
Precipitation  
Precipitation 0.07 in 0.10 in 1.25 in (1958)
Month to date precipitation 0.25 0.83  
Year to date precipitation 5.57 6.34  
Sea Level Pressure  
Sea Level Pressure 29.74 in    
Wind  
Wind Speed 14 mph (NNW)    
Max Wind Speed 33 mph    
Max Gust Speed 44 mph    
Visibility 10 miles    
Events Rain    
T = Trace of Precipitation, MM = Missing Value Source: NWS Daily Summary

Daily Weather History Graph

Daily Weather History Graph

Search for Another Location

Airport or City:

Trip Planner

Search our weather history database for the weather conditions in past years. The results will help you decide how hot, cold, wet, or windy it might be!

Date:

Astronomy

Jun. 08, 2013 Rise Set
Actual Time 5:15 AM MDT 8:25 PM MDT
Civil Twilight 4:41 AM MDT 8:59 PM MDT
Nautical Twilight 3:57 AM MDT 9:43 PM MDT
Astronomical Twilight 3:04 AM MDT 10:36 PM MDT
Moon 5:25 AM MDT (6/8) 8:28 PM MDT (6/8)
Length of Visible Light 16h 18m
Length of Day
15h 09m
New Moon, 0% of the Moon is Illuminated
Jun 8
New Moon
Jun 16
First Quarter
Jun 23
Full
Jun 29
Last Quarter
Jul 8
New

Hourly Weather History & Observations

Time (MDT) Temp. Dew Point Humidity Pressure Visibility Wind Dir Wind Speed Gust Speed Precip Events Conditions
12:53 AM 61.0 °F 52.0 °F 72% 29.59 in 10.0 mi South 15.0 mph 23.0 mph N/A   Partly Cloudy
1:53 AM 62.1 °F 52.0 °F 70% 29.59 in 10.0 mi SSE 17.3 mph 21.9 mph N/A   Mostly Cloudy
2:08 AM 62.6 °F 51.8 °F 68% 29.73 in 10.0 mi Variable 5.8 mph 29.9 mph N/A   Mostly Cloudy
2:53 AM 57.0 °F 53.1 °F 87% 29.57 in 10.0 mi SSE 11.5 mph - N/A   Clear
3:53 AM 55.9 °F 53.1 °F 90% 29.55 in 10.0 mi SSE 8.1 mph - N/A   Partly Cloudy
4:53 AM 57.0 °F 54.0 °F 89% 29.60 in 10.0 mi SSE 6.9 mph - 0.00 in Rain Light Rain
5:21 AM 57.2 °F 53.6 °F 88% 29.79 in 8.0 mi NNW 23.0 mph 28.8 mph 0.05 in Rain Light Rain
5:53 AM 57.0 °F 54.0 °F 89% 29.68 in 10.0 mi North 20.7 mph 27.6 mph 0.06 in Rain Light Rain
6:53 AM 55.9 °F 51.1 °F 84% 29.68 in 10.0 mi North 17.3 mph - 0.01 in Rain Light Rain
7:53 AM 57.0 °F 53.1 °F 87% 29.71 in 10.0 mi West 6.9 mph - 0.00 in   Overcast
8:53 AM 57.9 °F 53.1 °F 84% 29.73 in 10.0 mi WNW 6.9 mph - N/A   Mostly Cloudy
9:53 AM 64.9 °F 52.0 °F 63% 29.71 in 10.0 mi NW 20.7 mph 25.3 mph N/A   Clear
10:53 AM 71.1 °F 50.0 °F 47% 29.72 in 10.0 mi NNW 23.0 mph 29.9 mph N/A   Clear
11:53 AM 72.0 °F 46.0 °F 40% 29.73 in 10.0 mi NNW 23.0 mph 33.4 mph N/A   Partly Cloudy
12:53 PM 73.9 °F 44.1 °F 34% 29.71 in 10.0 mi NNW 20.7 mph 34.5 mph N/A   Scattered Clouds
1:53 PM 75.0 °F 42.1 °F 31% 29.71 in 10.0 mi NW 26.5 mph 39.1 mph N/A   Clear
2:53 PM 73.9 °F 37.9 °F 27% 29.73 in 10.0 mi NNW 32.2 mph 43.7 mph N/A   Partly Cloudy
3:53 PM 73.9 °F 39.0 °F 28% 29.75 in 10.0 mi North - - N/A   Partly Cloudy
4:23 PM 68.0 °F 51.8 °F 56% 29.87 in 10.0 mi NE 19.6 mph 28.8 mph N/A   Scattered Clouds
4:53 PM 68.0 °F 48.9 °F 50% 29.79 in 10.0 mi NNE 16.1 mph 24.2 mph N/A   Mostly Cloudy
5:53 PM 66.9 °F 46.9 °F 49% 29.80 in 10.0 mi NNE 13.8 mph - N/A   Clear
6:53 PM 66.9 °F 48.9 °F 52% 29.81 in 10.0 mi NNE 10.4 mph - N/A   Clear
7:53 PM 64.0 °F 51.1 °F 63% 29.84 in 10.0 mi NNE 5.8 mph - N/A   Clear
8:53 PM 60.1 °F 51.1 °F 72% 29.86 in 10.0 mi Calm Calm - N/A   Clear
9:53 PM 55.9 °F 50.0 °F 80% 29.88 in 10.0 mi NNE 5.8 mph - N/A   Clear
10:53 PM 46.9 °F 44.1 °F 90% 29.90 in 10.0 mi WNW 4.6 mph - N/A   Clear
11:53 PM 51.1 °F 46.0 °F 83% 29.90 in 10.0 mi NW 6.9 mph - N/A   Clear